sat.trackr.live / text

‹ back to catalog

STARLINK-32147

NORAD 60152 · 2024-120T

PAYLOAD ACTIVE UNKNOWN

§ Identity

Operator
Country
US
Launch date
2024-06-27
Launch site
AFETR
Launch vehicle
Mass (kg)
RCS (m²)

Purposes: comms

External: N2YO · Heavens-Above · Gunter

§ Orbital elements

Epoch: 2026-05-25T04:00:03.998880Z

Period
93.90 min
Inclination
53.1596°
Eccentricity
0.0001183
Mean motion
15.33558039 rev/d
Perigee alt
464.4 km
Apogee alt
466.0 km
Semi-major
6,843.3 km
B*
-6.7922e-4
RAAN
324.9027°
Arg perigee
85.9281°
Mean anomaly
224.8530°
Rev number
590

§ Raw data

STARLINK-321471 60152U 24120T   26145.16671295 -.00022650  00000+0 -67922-3 0  99932 60152  53.1596 324.9027 0001183  85.9281 224.8530 15.33558039  5908

JSON: /api/v1/satellites/60152 · /tle

For live sub-satellite position, see the globe view (requires WebGL).

§ Visibility from observer

Set your observer location to see the next 7 days of passes ≥ 10°. The values pass through the URL so the page stays shareable.

No JS? Fill the form by hand. The geolocation button needs JavaScript.